Wheeling, WV

1:23 PM EDT on September 23, 2017 (GMT -0400)
Wheeling-Ohio County

Weather History for KHLG - December, 2011

Change the Weather History Date:

Tuesday, December 13, 2011

  Actual Average Record
Temperature  
Mean Temperature 35 °F 33 °F  
Max Temperature 46 °F 40 °F 66 °F (2015)
Min Temperature 23 °F 27 °F 11 °F (2005)
Degree Days  
Heating Degree Days 30 32  
Month to date heating degree days 351 385  
Since 1 July heating degree days 1103 1513  
Cooling Degree Days 0    
Month to date cooling degree days 0  
Year to date cooling degree days 0  
Moisture  
Dew Point 24 °F    
Average Humidity 67    
Maximum Humidity 88    
Minimum Humidity 45    
Precipitation  
Precipitation T in 0.06 in 0.55 in (2007)
Month to date precipitation 0.51 1.00  
Sea Level Pressure  
Sea Level Pressure 30.47 in    
Wind  
Wind Speed 2 mph (South)    
Max Wind Speed 9 mph    
Max Gust Speed 12 mph    
Visibility 10 miles    
Events      
T = Trace of Precipitation, MM = Missing Value Source: NWS Daily Summary

Daily Weather History Graph

Daily Weather History Graph

Search for Another Location

Airport or City:

Trip Planner

Search our weather history database for the weather conditions in past years. The results will help you decide how hot, cold, wet, or windy it might be!

Date:

Astronomy

Dec. 13, 2011 Rise Set
Actual Time 7:36 AM EST 4:57 PM EST
Civil Twilight 7:05 AM EST 5:27 PM EST
Nautical Twilight 6:31 AM EST 6:01 PM EST
Astronomical Twilight 5:58 AM EST 6:34 PM EST
Moon 8:10 PM EST (12/13) 9:45 AM EST (12/13)
Length of Visible Light 10h 22m
Length of Day
9h 21m
Waning Gibbous, 90% of the Moon is Illuminated
Dec 13
Waning Gibbous
Dec 17
Last Quarter
Dec 24
New
Jan 1
First Quarter
Jan 9
Full

Hourly Weather History & Observations

Time (EST) Temp. Windchill Dew Point Humidity Pressure Visibility Wind Dir Wind Speed Gust Speed Precip Events Conditions
12:53 AM 28.0 °F - 21.9 °F 78% 30.48 in 10.0 mi Calm Calm - N/A   Clear
1:53 AM 28.0 °F - 21.0 °F 75% 30.48 in 10.0 mi Calm Calm - N/A   Clear
2:53 AM 27.0 °F - 21.9 °F 81% 30.49 in 10.0 mi Calm Calm - N/A   Clear
3:53 AM 26.1 °F - 23.0 °F 88% 30.49 in 8.0 mi Calm Calm - N/A   Clear
4:53 AM 24.1 °F - 21.0 °F 88% 30.48 in 8.0 mi Calm Calm - N/A   Clear
5:53 AM 27.0 °F - 21.0 °F 78% 30.48 in 10.0 mi Calm Calm - N/A   Partly Cloudy
6:53 AM 24.1 °F 19.7 °F 19.0 °F 81% 30.50 in 10.0 mi SSW 3.5 mph - N/A   Clear
7:53 AM 26.1 °F - 21.0 °F 81% 30.49 in 9.0 mi Calm Calm - N/A   Mostly Cloudy
8:53 AM 26.1 °F - 23.0 °F 88% 30.51 in 7.0 mi Calm Calm - N/A   Overcast
9:53 AM 32.0 °F - 25.0 °F 75% 30.50 in 9.0 mi Calm Calm - N/A   Overcast
10:53 AM 37.0 °F - 27.0 °F 67% 30.53 in 10.0 mi Calm Calm - N/A   Overcast
11:53 AM 39.9 °F 36.7 °F 28.0 °F 63% 30.49 in 10.0 mi SE 4.6 mph - N/A   Mostly Cloudy
12:53 PM 42.1 °F 38.4 °F 25.0 °F 51% 30.48 in 10.0 mi SW 5.8 mph - N/A   Mostly Cloudy
1:53 PM 44.1 °F 39.5 °F 24.1 °F 45% 30.46 in 10.0 mi SW 8.1 mph - N/A   Clear
2:53 PM 45.0 °F 41.2 °F 25.0 °F 46% 30.45 in 10.0 mi SSW 6.9 mph - N/A   Overcast
3:53 PM 43.0 °F 40.3 °F 25.0 °F 49% 30.44 in 10.0 mi SW 4.6 mph - N/A   Overcast
4:53 PM 43.0 °F - 25.0 °F 49% 30.45 in 10.0 mi Calm Calm - N/A   Overcast
5:53 PM 41.0 °F 39.0 °F 26.1 °F 55% 30.45 in 10.0 mi SSW 3.5 mph - N/A   Overcast
6:53 PM 42.1 °F - 25.0 °F 51% 30.47 in 10.0 mi Calm Calm - N/A   Overcast
7:53 PM 39.9 °F - 27.0 °F 60% 30.46 in 10.0 mi Calm Calm - 0.00 in   Overcast
8:53 PM 39.9 °F 36.7 °F 27.0 °F 60% 30.43 in 10.0 mi ESE 4.6 mph - N/A   Overcast
9:53 PM 39.9 °F - 27.0 °F 60% 30.44 in 10.0 mi Calm Calm - N/A   Overcast
10:53 PM 39.9 °F - 27.0 °F 60% 30.43 in 10.0 mi Calm Calm - N/A   Overcast
11:53 PM 37.0 °F 33.3 °F 28.0 °F 70% 30.41 in 10.0 mi SE 4.6 mph - N/A   Overcast